Regional Weather Roundup
Issued by NWS

Home | Current Version | Previous Version | Text Only | Print | Product List | Glossary Off
Versions: 1 2 3 4 5 6 7 8 9 10 11 12 13 14 15 16 17 18 19 20 21 22 23 24 25 26 27 28 29 30 31 32 33 34 35 36 37 38 39 40 41 42 43 44 45 46 47 48 49 50

000
ASUS43 KTOP 271508
RWRKS

WEATHER ROUNDUP FOR KANSAS
NATIONAL WEATHER SERVICE GOODLAND KS
1000 AM CDT SUN MAY 27 2018

NOTE:  "FAIR" INDICATES FEW OR NO CLOUDS BELOW 12,000 FEET WITH NO
SIGNIFICANT WEATHER AND/OR OBSTRUCTIONS TO VISIBILITY.

KSZ001>006-013>018-027>032-041>047-271600-
NORTHWEST KANSAS

CITY           SKY/WX    TMP DP  RH WIND       PRES   REMARKS
GOODLAND       CLOUDY    76  64  66 S22G32    29.89S
HAYS           MOSUNNY   82  69  64 S14       29.89F
HILL CITY      MOSUNNY   81  69  67 S14G23    29.89S
RUSSELL        MOSUNNY   80  70  71 S15       29.89S
$$

KSZ061>065-074>080-084>089-271600-
SOUTHWEST KANSAS

CITY           SKY/WX    TMP DP  RH WIND       PRES   REMARKS
DODGE CITY     CLOUDY    81  63  54 S20       29.90S
ELKHART        SUNNY     78  67  69 SE17G23   29.89S
GARDEN CITY    CLOUDY    74  64  71 S13       29.89S
GREAT BEND     MOSUNNY   82  69  64 S14       29.90
LIBERAL        CLOUDY    78  65  63 S21       29.89F
PRATT          MOSUNNY   80  65  61 S15       29.92S
$$

KSZ066>073-081>083-090>101-271600-
SOUTHEAST KANSAS

CITY           SKY/WX    TMP DP  RH WIND       PRES   REMARKS
CHANUTE        SUNNY     82  72  71 S7        29.92S
COFFEYVILLE    SUNNY     83  71  67 S7        29.91S
HUTCHINSON     SUNNY     84  69  60 S9        29.91R
MEDICINE LODGE   N/A     80  68  66 S10       29.89S
NEWTON         SUNNY     82  68  62 S12       29.92
PARSONS        SUNNY     81  71  71 S7        29.93S
WICHITA INTL   PTSUNNY   83  69  62 S12       29.90S
WICHITA JABRA  SUNNY     82  69  64 S9        29.91R
WICHITA MCCONL SUNNY     82  67  61 S8        29.91R
WINFIELD       SUNNY     82  71  69 S9        29.92S
$$

KSZ007>012-019>026-033>040-048>060-102>105-271600-
NORTHEAST KANSAS

CITY           SKY/WX    TMP DP  RH WIND       PRES   REMARKS
CONCORDIA      MOSUNNY   82  68  62 SW16G26   29.88S
EMPORIA        SUNNY     84  68  58 SW8       29.90S
LAWRENCE       SUNNY     84  69  60 W7        29.91R
MANHATTAN      SUNNY     86  67  52 SW10      29.89R
OLATHE IND     SUNNY     83  69  62 SW8       29.93R
OLATHE EXE     SUNNY     83  69  62 W6        29.92R
SALINA         MOSUNNY   84  70  62 SW16      29.89S
TOPEKA BILLARD SUNNY     85  68  56 SW5       29.90R
TOPEKA FORBES  SUNNY     84  69  60 SW5       29.91R
$$




USA.gov is the U.S. government's official web portal to all federal, state and local government web resources and services.